Boston, MA

6:20 AM EDT on June 24, 2017 (GMT -0400)
Logan International

Weather History for KBOS - July, 2013

Change the Weather History Date:

Friday, July 26, 2013

  Actual Average Record
Temperature  
Mean Temperature 67 °F 74 °F  
Max Temperature 72 °F 82 °F 96 °F (1963)
Min Temperature 62 °F 66 °F 56 °F (1920)
Degree Days  
Heating Degree Days 0 0  
Month to date heating degree days 2 0  
Since 1 June heating degree days 27 55  
Since 1 July heating degree days 2 0  
Cooling Degree Days 2 9  
Month to date cooling degree days 341 223  
Year to date cooling degree days 550 389  
Since 1 June cooling degree days 512 359  
Growing Degree Days 16 (Base 50)    
Moisture  
Dew Point 62 °F    
Average Humidity 83    
Maximum Humidity 93    
Minimum Humidity 73    
Precipitation  
Precipitation 1.00 in 0.12 in 1.24 in (1900)
Month to date precipitation 3.27 2.80  
Year to date precipitation 28.02 24.64  
Snow  
Snow 0.00 in 0.00 in 0.00 in (2002)
Month to date snowfall 0.0 0.0  
Since 1 June snowfall 0.0 0.0  
Since 1 July snowfall 0.0 0.0  
Snow Depth -    
Sea Level Pressure  
Sea Level Pressure 29.97 in    
Wind  
Wind Speed 11 mph (NNW)    
Max Wind Speed 17 mph    
Max Gust Speed 24 mph    
Visibility 7 miles    
Events Rain    
T = Trace of Precipitation, MM = Missing Value Source: NWS Daily Summary

Daily Weather History Graph

Daily Weather History Graph

Search for Another Location

Airport or City:

Trip Planner

Search our weather history database for the weather conditions in past years. The results will help you decide how hot, cold, wet, or windy it might be!

Date:

Astronomy

Jul. 26, 2013 Rise Set
Actual Time 5:30 AM EDT 8:09 PM EDT
Civil Twilight 4:58 AM EDT 8:42 PM EDT
Nautical Twilight 4:17 AM EDT 9:22 PM EDT
Astronomical Twilight 3:31 AM EDT 10:08 PM EDT
Moon 10:14 PM EDT (7/26) 10:10 AM EDT (7/26)
Length of Visible Light 15h 43m
Length of Day
14h 38m
Waning Gibbous, 80% of the Moon is Illuminated
Jul 26
Waning Gibbous
Jul 29
Last Quarter
Aug 6
New
Aug 14
First Quarter
Aug 20
Full

Hourly Weather History & Observations

Time (EDT) Temp. Dew Point Humidity Pressure Visibility Wind Dir Wind Speed Gust Speed Precip Events Conditions
12:54 AM 62.1 °F 59.0 °F 90% 30.05 in 10.0 mi North 6.9 mph - N/A   Overcast
1:43 AM 62.6 °F 59.0 °F 88% 30.03 in 10.0 mi North 9.2 mph - 0.00 in Rain Light Rain
1:54 AM 62.1 °F 59.0 °F 90% 30.03 in 10.0 mi North 9.2 mph - 0.00 in Rain Light Rain
2:54 AM 62.1 °F 60.1 °F 93% 30.02 in 8.0 mi North 6.9 mph - 0.03 in Rain Light Rain
3:20 AM 62.6 °F 60.8 °F 94% 30.01 in 10.0 mi North 9.2 mph - 0.01 in Rain Light Rain
3:32 AM 62.6 °F 60.8 °F 94% 30.01 in 9.0 mi NNW 8.1 mph - 0.02 in Rain Light Rain
3:42 AM 62.6 °F 60.8 °F 94% 30.00 in 4.0 mi NNW 8.1 mph - 0.06 in Rain Rain
3:49 AM 62.6 °F 60.8 °F 94% 30.00 in 6.0 mi NNW 9.2 mph - 0.07 in Rain Rain
3:54 AM 62.1 °F 60.1 °F 93% 30.00 in 7.0 mi NNW 10.4 mph - 0.08 in Rain Light Rain
4:24 AM 62.6 °F 60.8 °F 94% 29.99 in 6.0 mi North 12.7 mph - 0.03 in Rain Rain
4:54 AM 62.1 °F 60.1 °F 93% 29.99 in 2.5 mi North 12.7 mph - 0.21 in Rain Heavy Rain
5:37 AM 62.6 °F 60.8 °F 94% 29.99 in 2.5 mi North 12.7 mph - 0.10 in Rain Rain
5:54 AM 62.1 °F 60.1 °F 93% 29.99 in 2.5 mi North 12.7 mph - 0.12 in Rain Rain
6:09 AM 62.6 °F 60.8 °F 94% 29.98 in 5.0 mi North 10.4 mph - 0.01 in Rain Rain
6:39 AM 62.6 °F 60.8 °F 94% 29.98 in 6.0 mi North 12.7 mph - 0.04 in Rain Light Rain
6:54 AM 63.0 °F 60.1 °F 90% 29.99 in 6.0 mi North 12.7 mph - 0.04 in Rain Light Rain
7:25 AM 62.6 °F 60.8 °F 94% 29.98 in 2.5 mi North 15.0 mph - 0.03 in Rain Rain
7:41 AM 62.6 °F 60.8 °F 94% 29.98 in 5.0 mi North 13.8 mph - 0.06 in Rain Light Rain
7:54 AM 63.0 °F 61.0 °F 93% 29.98 in 7.0 mi North 16.1 mph - 0.06 in Rain Light Rain
8:54 AM 63.0 °F 61.0 °F 93% 29.97 in 5.0 mi North 12.7 mph - 0.03 in Rain Light Rain
9:54 AM 64.0 °F 61.0 °F 90% 29.96 in 4.0 mi North 13.8 mph - 0.05 in Rain Light Rain
10:54 AM 64.9 °F 62.1 °F 90% 29.95 in 8.0 mi NNW 16.1 mph - 0.01 in   Overcast
11:54 AM 66.0 °F 63.0 °F 90% 29.95 in 5.0 mi NNW 12.7 mph 19.6 mph 0.00 in Rain Light Rain
12:33 PM 66.2 °F 62.6 °F 88% 29.95 in 10.0 mi NNW 12.7 mph - 0.00 in   Overcast
12:54 PM 68.0 °F 63.0 °F 84% 29.94 in 10.0 mi NNW 12.7 mph - 0.00 in   Overcast
1:35 PM 69.8 °F 64.4 °F 83% 29.93 in 10.0 mi NNW 13.8 mph - N/A   Overcast
1:52 PM 69.8 °F 62.6 °F 78% 29.92 in 10.0 mi NNW 13.8 mph - N/A   Overcast
1:54 PM 70.0 °F 63.0 °F 78% 29.92 in 10.0 mi NNW 16.1 mph - N/A   Overcast
2:29 PM 71.6 °F 62.6 °F 73% 29.92 in 10.0 mi NNW 15.0 mph 24.2 mph N/A   Overcast
2:54 PM 71.1 °F 63.0 °F 75% 29.92 in 10.0 mi NW 12.7 mph 20.7 mph N/A   Overcast
3:37 PM 69.8 °F 64.4 °F 83% 29.93 in 9.0 mi NW 13.8 mph 20.7 mph 0.00 in Rain Light Rain
3:54 PM 70.0 °F 64.0 °F 81% 29.93 in 9.0 mi NW 11.5 mph - 0.00 in Rain Light Rain
4:54 PM 72.0 °F 62.1 °F 71% 29.93 in 10.0 mi NW 13.8 mph 21.9 mph 0.00 in   Overcast
5:54 PM 70.0 °F 64.0 °F 81% 29.95 in 8.0 mi NW 11.5 mph 20.7 mph 0.01 in Rain Light Rain
6:54 PM 68.0 °F 66.0 °F 93% 29.97 in 4.0 mi South 6.9 mph - 0.10 in Rain Rain
7:54 PM 68.0 °F 66.0 °F 93% 29.96 in 5.0 mi Calm Calm - 0.19 in Rain Rain
8:54 PM 70.0 °F 64.0 °F 81% 29.97 in 7.0 mi West 6.9 mph - 0.07 in   Mostly Cloudy
9:54 PM 69.1 °F 62.1 °F 78% 29.99 in 10.0 mi West 9.2 mph - N/A   Mostly Cloudy
10:54 PM 69.1 °F 61.0 °F 75% 29.99 in 10.0 mi West 9.2 mph - N/A   Mostly Cloudy
11:54 PM 69.1 °F 60.1 °F 73% 30.00 in 10.0 mi West 11.5 mph - N/A   Mostly Cloudy